sat.trackr.live / text

‹ back to catalog

STARLINK-3823

NORAD 52336 · 2022-045F

PAYLOAD ACTIVE UNKNOWN

§ Identity

Operator
Country
US
Launch date
2022-04-29
Launch site
AFETR
Launch vehicle
Mass (kg)
RCS (m²)

Purposes: comms

External: N2YO · Heavens-Above · Gunter

§ Orbital elements

Epoch: 2026-09-20T01:53:03.167232Z

Period
93.90 min
Inclination
53.1621°
Eccentricity
0.0001059
Mean motion
15.33543082 rev/d
Perigee alt
464.5 km
Apogee alt
466.0 km
Semi-major
6,843.4 km
B*
8.2324e-5
RAAN
40.0110°
Arg perigee
101.9502°
Mean anomaly
258.1619°
Rev number
24,521

§ Raw data

STARLINK-38231 52336U 22045F   26263.07850888  .00002335  00000+0  82324-4 0  99902 52336  53.1621  40.0110 0001059 101.9502 258.1619 15.33543082245218

JSON: /api/v1/satellites/52336 · /tle

For live sub-satellite position, see the globe view (requires WebGL).

§ Visibility from observer

Set your observer location to see the next 7 days of passes ≥ 10°. The values pass through the URL so the page stays shareable.

No JS? Fill the form by hand. The geolocation button needs JavaScript.